User: anonymous
Location: Lac de la Montange Noire
(46.1952°N, 74.2701°W)
Time: 23:49:33
(UTC-04:00)
Language:

Iridium 42 - Orbit

View from above orbital plane
View from above orbital plane
View from above satellite
View from above satellite

Ground track
Ground track

The orbit data is extracted from the following two-line orbital elements,

1 25077U 97077A   14106.46031463  .00000183  00000-0  58149-4 0  7621
2 25077 086.3965 145.9195 0002420 107.5230 252.6230 14.34215144856233
Epoch (UTC): 16 April 2014 11:02:51
Eccentricity: 0.0002420
inclination: 86.3965°
perigee height: 776 km
apogee height: 779 km
right ascension of ascending node: 145.9195°
argument of perigee: 107.5230°
revolutions per day: 14.34215144
mean anomaly at epoch: 252.6230°
orbit number at epoch: 85623

The dashed part of the orbit path shows where the satellite is in the earth's shadow,  

DLR